Auburn, AL

9:28 PM CST on November 16, 2019 (GMT -0600)
Auburn-opelika-pitts

Weather History for KAUO - June, 2019

Change the Weather History Date:

Thursday, June 13, 2019

  Actual Average Record
Temperature  
Mean Temperature 73 °F -  
Max Temperature 82 °F - 98 °F (1958)
Min Temperature 64 °F - 50 °F (1985)
Cooling Degree Days 8    
Month to date cooling degree days 162  
Year to date cooling degree days 578  
Since 1 June cooling degree days 162  
Growing Degree Days 22 (Base 50)    
Moisture  
Dew Point 57 °F    
Average Humidity 55    
Maximum Humidity 100    
Minimum Humidity 39    
Precipitation  
Precipitation 0.00 in - 1.30 in (2003)
Month to date precipitation 1.15  
Year to date precipitation 21.61  
Sea Level Pressure  
Sea Level Pressure 30.08 in    
Wind  
Wind Speed 7 mph (NW)    
Max Wind Speed 13 mph    
Max Gust Speed 20 mph    
Visibility 10 miles    
Events      
T = Trace of Precipitation, MM = Missing Value Source: NWS Daily Summary

Daily Weather History Graph

Daily Weather History Graph

Search for Another Location

Airport or City:

Astronomy

Jun. 13, 2019 Rise Set
Actual Time 5:33 AM CDT 7:50 PM CDT
Civil Twilight 5:05 AM CDT 8:18 PM CDT
Nautical Twilight 4:30 AM CDT 8:53 PM CDT
Astronomical Twilight 3:52 AM CDT 9:31 PM CDT
Moon 4:16 PM CDT (6/13) 3:03 AM CDT (6/13)
Length of Visible Light 15h 13m
Length of Day
14h 16m
Waxing Gibbous, 85% of the Moon is Illuminated
Jun 13
Waxing Gibbous
Jun 17
Full
Jun 25
Last Quarter
Jul 2
New
Jul 9
First Quarter

Hourly Weather History & Observations

Time (CDT) Temp. Heat Index Dew Point Humidity Pressure Visibility Wind Dir Wind Speed Gust Speed Precip Events Conditions
1:56 AM 68.0 °F - - N/A% 30.00 in 10.0 mi Calm Calm - N/A   Clear
2:56 AM 66.0 °F - 66.0 °F 100% 29.99 in 10.0 mi West 4.6 mph - N/A   Clear
3:56 AM 64.9 °F - - N/A% 30.00 in 10.0 mi SW 3.5 mph - N/A   Clear
4:56 AM 64.0 °F - - N/A% 30.02 in 10.0 mi SW 4.6 mph - N/A   Clear
5:56 AM 64.0 °F - - N/A% 30.03 in 10.0 mi Calm Calm - N/A   Clear
6:56 AM 64.9 °F - - N/A% 30.04 in 10.0 mi West 4.6 mph - N/A   Clear
7:56 AM 70.0 °F - 63.0 °F 78% 30.06 in 10.0 mi West 4.6 mph - N/A   Clear
9:56 AM 75.0 °F - 57.9 °F 55% 30.08 in 10.0 mi NW 11.5 mph - N/A   Clear
10:56 AM 77.0 °F - 57.9 °F 52% 30.09 in 10.0 mi WNW 10.4 mph - N/A   Clear
11:56 AM 79.0 °F - 57.0 °F 47% 30.08 in 10.0 mi NNW 12.7 mph 18.4 mph N/A   Clear
12:56 PM 79.0 °F - 55.0 °F 44% 30.08 in 10.0 mi WNW 12.7 mph 19.6 mph N/A   Clear
1:56 PM 80.1 °F 80.1 °F 55.0 °F 42% 30.08 in 10.0 mi WNW 9.2 mph - N/A   Partly Cloudy
2:56 PM 80.1 °F 80.0 °F 54.0 °F 40% 30.08 in 10.0 mi Variable 5.8 mph - N/A   Partly Cloudy
3:56 PM 81.0 °F 80.5 °F 54.0 °F 39% 30.08 in 10.0 mi NW 9.2 mph 17.3 mph N/A   Partly Cloudy
4:56 PM 80.1 °F 80.0 °F 54.0 °F 40% 30.09 in 10.0 mi NW 10.4 mph - N/A   Partly Cloudy
5:56 PM 80.1 °F 80.0 °F 54.0 °F 40% 30.09 in 10.0 mi WNW 10.4 mph - N/A   Clear
6:56 PM 78.1 °F - 55.0 °F 45% 30.09 in 10.0 mi NNW 8.1 mph - N/A   Clear
7:56 PM 73.9 °F - 55.9 °F 53% 30.11 in 10.0 mi North 4.6 mph - N/A   Clear
9:56 PM 69.1 °F - 55.9 °F 63% 30.15 in 10.0 mi NNE 5.8 mph - N/A   Clear
10:56 PM 66.0 °F - 57.9 °F 75% 30.17 in 10.0 mi NNE 4.6 mph - N/A   Clear
11:56 PM 66.0 °F - 57.0 °F 73% 30.17 in 10.0 mi NE 5.8 mph - N/A   Clear